Home   Weather   Greenville   Past weeks
Flag for USA

Past Weather in Greenville, South Carolina, USA — Yesterday and Last 2 Weeks

Now
50 °F

Clear.


Feels Like: 46 °F
Forecast: 74 / 45 °F
Wind: 9 mph from North

Location: Greenville Downtown Airport

Current Time: Apr 3, 2020 at 7:40:46 am

Latest Report: Apr 3, 2020 at 6:53 am


Visibility: 10 mi

Pressure: 30.00 "Hg

Humidity: 57%

Dew Point: 35 °F

Location of GreenvilleLocation

Past Weather in Greenville — Graph

°F

Greenville Temperature Yesterday

Maximum temperature yesterday: 70 °F (at 3:53 pm)
Minimum temperature yesterday: 44 °F (at 6:53 am)
Average temperature yesterday: 56 °F

High & Low Weather Summary for the Past Weeks

 TemperatureHumidityPressure
High85 °F (Mar 27, 3:53 pm)100% (Mar 19, 5:53 am)30.40 "Hg (Mar 19, 5:53 am)
Low44 °F (Apr 2, 6:53 am)20% (Mar 30, 7:53 pm)29.64 "Hg (Mar 31, 5:53 pm)
Average62 °F69%30.05 "Hg
* Reported Mar 19 5:19 am — Apr 3 5:53 am, Greenville. Weather by CustomWeather, © 2020

Note: Actual official high and low records may vary slightly from our data, if they occured in-between our weather recording intervals... More about our weather records

Greenville Weather History for the Previous 24 Hours

Scroll right to see more
 ConditionsComfort  
Time TempWeatherWind HumidityBarometerVisibility
5:53 am
Fri, Apr 3
53 °FClear.7 mph48%29.98 "Hg10 mi
4:53 am56 °FClear.10 mph44%29.97 "Hg10 mi
3:53 am57 °FClear.14 mph42%29.96 "Hg10 mi
2:53 am56 °FClear.13 mph44%29.98 "Hg10 mi
1:53 am58 °FClear.12 mph41%30.00 "Hg10 mi
12:53 am58 °FClear.8 mph41%30.01 "Hg10 mi
11:53 pm
Thu, Apr 2
57 °FClear.6 mph42%30.01 "Hg10 mi
10:53 pm58 °FClear.7 mph41%30.01 "Hg10 mi
9:53 pm58 °FClear.8 mph43%30.01 "Hg10 mi
8:53 pm63 °FClear.6 mph37%29.99 "Hg10 mi
6:53 pm68 °FSunny.7 mph27%29.96 "Hg10 mi
5:53 pm69 °FSunny.8 mph23%29.96 "Hg10 mi
4:53 pm69 °FSunny.10 mph24%29.96 "Hg10 mi
3:53 pm70 °FSunny.12 mph26%29.97 "Hg10 mi
2:53 pm68 °FSunny.N/A28%30.00 "Hg10 mi
1:53 pm64 °FSunny.6 mph33%30.03 "Hg10 mi
12:53 pm62 °FSunny.3 mph37%30.06 "Hg10 mi
11:53 am59 °FSunny.10 mph39%30.09 "Hg10 mi
10:53 am57 °FSunny.7 mph42%30.10 "Hg10 mi
9:53 am55 °FSunny.12 mph47%30.10 "Hg10 mi
8:53 am52 °FSunny.15 mph55%30.09 "Hg10 mi
7:53 am46 °FSunny.7 mph71%30.09 "Hg10 mi
Weather by CustomWeather, © 2020

See weather overview

Advertising